Walden-Jackson Cnty AP, Walde, CO

4:39 AM MST on November 20, 2019 (GMT -0700)
Walden-Jackson Cnty AP, Walde

Weather History for K33V - October, 2019

Change the Weather History Date:

Monday, October 21, 2019

  Actual Average Record
Temperature  
Mean Temperature 26 °F -  
Max Temperature 34 °F - 59 °F (2016)
Min Temperature 19 °F - 17 °F (2013)
Degree Days  
Heating Degree Days 38    
Month to date heating degree days 595  
Cooling Degree Days 0    
Month to date cooling degree days 0  
Moisture  
Dew Point 18 °F    
Average Humidity 69    
Maximum Humidity 86    
Minimum Humidity 49    
Precipitation  
Precipitation 0.00 in - 0.00 in (2019)
Sea Level Pressure  
Sea Level Pressure 30.07 in    
Wind  
Wind Speed 5 mph ()    
Max Wind Speed 17 mph    
Max Gust Speed 23 mph    
Visibility 9.5 miles    
Events      
T = Trace of Precipitation, MM = Missing Value Source: Averaged Metar Reports

Daily Weather History Graph

Daily Weather History Graph

Search for Another Location

Airport or City:

Astronomy

Oct. 21, 2019 Rise Set
Actual Time 7:22 AM MDT 6:16 PM MDT
Civil Twilight 6:54 AM MDT 6:43 PM MDT
Nautical Twilight 6:22 AM MDT 7:15 PM MDT
Astronomical Twilight 5:51 AM MDT 7:47 PM MDT
Moon No Moon Rise 2:44 PM MDT (10/21)
Length of Visible Light 11h 49m
Length of Day
10h 53m
Waning Gibbous, 47% of the Moon is Illuminated
Oct 21
Waning Gibbous
Oct 27
New
Nov 4
First Quarter
Nov 12
Full
Nov 19
Last Quarter

Hourly Weather History & Observations

Time (MDT) Temp. Windchill Dew Point Humidity Pressure Visibility Wind Dir Wind Speed Gust Speed Precip Events Conditions
12:15 AM 23.0 °F 15.8 °F 14.0 °F 68% 30.00 in 10.0 mi WNW 5.8 mph - N/A   Mostly Cloudy
12:35 AM 19.4 °F - 12.2 °F 74% 29.99 in 10.0 mi Calm Calm - N/A   Scattered Clouds
12:55 AM 19.4 °F - 14.0 °F 80% 29.99 in 10.0 mi Calm Calm - N/A   Scattered Clouds
1:15 AM 21.2 °F 13.6 °F 14.0 °F 74% 29.98 in 10.0 mi West 5.8 mph - N/A   Scattered Clouds
1:35 AM 19.4 °F 14.3 °F 12.2 °F 74% 29.98 in 10.0 mi East 3.5 mph - N/A   Scattered Clouds
1:55 AM 21.2 °F - 14.0 °F 74% 29.99 in 10.0 mi Calm Calm - N/A   Mostly Cloudy
2:15 AM 21.2 °F 16.4 °F 14.0 °F 74% 29.98 in 10.0 mi WNW 3.5 mph - N/A   Overcast
2:35 AM 21.2 °F 16.4 °F 14.0 °F 74% 29.98 in 10.0 mi South 3.5 mph - N/A   Overcast
2:55 AM 21.2 °F 16.4 °F 14.0 °F 74% 29.98 in 10.0 mi SE 3.5 mph - N/A   Overcast
3:15 AM 23.0 °F - 14.0 °F 68% 29.98 in 10.0 mi Calm Calm - N/A   Overcast
3:35 AM 21.2 °F 16.4 °F 14.0 °F 74% 29.97 in 10.0 mi WSW 3.5 mph - N/A   Overcast
3:55 AM 23.0 °F - 14.0 °F 68% 29.97 in 10.0 mi Calm Calm - N/A   Overcast
4:15 AM 23.0 °F - 14.0 °F 68% 29.97 in 10.0 mi Calm Calm - N/A   Overcast
4:35 AM 21.2 °F 14.9 °F 14.0 °F 74% 29.97 in 10.0 mi WSW 4.6 mph - N/A   Overcast
4:55 AM 21.2 °F 16.4 °F 14.0 °F 74% 29.97 in 10.0 mi SSW 3.5 mph - N/A   Overcast
5:15 AM 21.2 °F 13.6 °F 14.0 °F 74% 29.98 in 10.0 mi West 5.8 mph - N/A   Overcast
5:35 AM 21.2 °F 12.6 °F 14.0 °F 74% 29.97 in 10.0 mi WSW 6.9 mph - N/A   Overcast
5:55 AM 21.2 °F 16.4 °F 14.0 °F 74% 29.97 in 10.0 mi SW 3.5 mph - N/A   Overcast
6:15 AM 19.4 °F - 14.0 °F 80% 29.98 in 10.0 mi Calm Calm - N/A   Overcast
6:35 AM 21.2 °F 10.1 °F 14.0 °F 74% 29.98 in 10.0 mi WSW 10.4 mph - N/A   Overcast
6:55 AM 23.0 °F 13.1 °F 14.0 °F 68% 29.98 in 10.0 mi WSW 9.2 mph - N/A   Overcast
7:15 AM 23.0 °F 15.8 °F 14.0 °F 68% 29.99 in 10.0 mi WSW 5.8 mph - N/A   Overcast
7:35 AM 23.0 °F 15.8 °F 14.0 °F 68% 30.00 in 10.0 mi SSW 5.8 mph - N/A   Overcast
7:55 AM 21.2 °F 16.4 °F 15.8 °F 80% 30.00 in 10.0 mi South 3.5 mph - N/A   Overcast
8:15 AM 23.0 °F 18.4 °F 15.8 °F 74% 30.01 in 10.0 mi South 3.5 mph - N/A   Overcast
8:35 AM 23.0 °F 18.4 °F 15.8 °F 74% 30.02 in 10.0 mi South 3.5 mph - N/A   Overcast
8:55 AM 23.0 °F 15.8 °F 15.8 °F 74% 30.03 in 10.0 mi SSW 5.8 mph - N/A   Overcast
9:15 AM 24.8 °F 17.9 °F 15.8 °F 69% 30.04 in 10.0 mi South 5.8 mph - N/A   Overcast
9:35 AM 26.6 °F 18.2 °F 15.8 °F 64% 30.04 in 10.0 mi SW 8.1 mph - N/A   Overcast
9:55 AM 26.6 °F 18.2 °F 15.8 °F 64% 30.04 in 10.0 mi SW 8.1 mph - N/A   Overcast
10:15 AM 26.6 °F 18.2 °F 15.8 °F 64% 30.04 in 10.0 mi SW 8.1 mph - N/A   Overcast
10:35 AM 28.4 °F 20.4 °F 15.8 °F 59% 30.04 in 10.0 mi SSW 8.1 mph - N/A   Overcast
10:55 AM 30.2 °F 23.4 °F 17.6 °F 60% 30.04 in 10.0 mi SSW 6.9 mph - N/A   Overcast
11:15 AM 30.2 °F 22.6 °F 17.6 °F 60% 30.05 in 10.0 mi SW 8.1 mph - N/A   Overcast
11:35 AM 30.2 °F 21.9 °F 15.8 °F 55% 30.05 in 10.0 mi SW 9.2 mph - N/A   Overcast
11:55 AM 32.0 °F 26.4 °F 17.6 °F 55% 30.05 in 10.0 mi WNW 5.8 mph - N/A   Overcast
12:15 PM 32.0 °F 23.6 °F 17.6 °F 55% 30.05 in 10.0 mi WNW 10.4 mph - N/A   Overcast
12:35 PM 32.0 °F 23.0 °F 15.8 °F 51% 30.06 in 10.0 mi West 11.5 mph - N/A   Overcast
12:55 PM 32.0 °F 22.5 °F 17.6 °F 55% 30.07 in 10.0 mi West 12.7 mph - N/A   Overcast
1:15 PM 32.0 °F 22.5 °F 15.8 °F 51% 30.07 in 10.0 mi WNW 12.7 mph - N/A   Overcast
1:35 PM 32.0 °F 22.5 °F 15.8 °F 51% 30.07 in 10.0 mi WNW 12.7 mph - N/A   Overcast
1:55 PM 32.0 °F 20.8 °F 17.6 °F 55% 30.08 in 10.0 mi West 17.3 mph 20.7 mph N/A   Overcast
2:15 PM 33.8 °F 24.3 °F 17.6 °F 52% 30.08 in 10.0 mi WNW 13.8 mph 19.6 mph N/A   Overcast
2:35 PM 32.0 °F 21.6 °F 17.6 °F 55% 30.08 in 10.0 mi West 15.0 mph 18.4 mph N/A   Overcast
2:55 PM 33.8 °F 24.8 °F 19.4 °F 56% 30.08 in 10.0 mi West 12.7 mph - N/A   Overcast
3:15 PM 32.0 °F 23.0 °F 17.6 °F 55% 30.09 in 10.0 mi West 11.5 mph - N/A   Overcast
3:35 PM 32.0 °F 23.0 °F 19.4 °F 60% 30.09 in 10.0 mi WSW 11.5 mph 19.6 mph N/A   Overcast
3:55 PM 33.8 °F 23.9 °F 19.4 °F 56% 30.10 in 10.0 mi West 15.0 mph - N/A   Overcast
4:15 PM 32.0 °F 22.5 °F 19.4 °F 60% 30.11 in 10.0 mi WNW 12.7 mph - N/A   Overcast
4:35 PM 32.0 °F 23.6 °F 19.4 °F 60% 30.11 in 10.0 mi WNW 10.4 mph - N/A   Overcast
4:55 PM 30.2 °F 20.2 °F 23.0 °F 75% 30.11 in 10.0 mi WSW 12.7 mph - N/A   Overcast
5:15 PM 30.2 °F 21.9 °F 21.2 °F 69% 30.11 in 10.0 mi WSW 9.2 mph - N/A   Overcast
5:35 PM 30.2 °F 24.3 °F 21.2 °F 69% 30.13 in 10.0 mi West 5.8 mph - N/A   Overcast
5:55 PM 30.2 °F 19.8 °F 21.2 °F 69% 30.13 in 7.0 mi West 13.8 mph 23.0 mph N/A   Overcast
6:15 PM 30.2 °F 20.8 °F 24.8 °F 80% 30.14 in 4.0 mi WSW 11.5 mph - N/A   Overcast
6:35 PM 30.2 °F 22.6 °F 24.8 °F 80% 30.14 in 10.0 mi West 8.1 mph - N/A   Overcast
6:55 PM 30.2 °F 23.4 °F 24.8 °F 80% 30.16 in 10.0 mi WSW 6.9 mph - N/A   Overcast
7:15 PM 30.2 °F 23.4 °F 24.8 °F 80% 30.17 in 7.0 mi WSW 6.9 mph - N/A   Overcast
7:35 PM 30.2 °F 21.9 °F 24.8 °F 80% 30.18 in 4.0 mi WSW 9.2 mph - N/A   Overcast
7:55 PM 30.2 °F 21.9 °F 24.8 °F 80% 30.19 in 2.5 mi West 9.2 mph 16.1 mph N/A   Overcast
8:15 PM 30.2 °F 26.7 °F 24.8 °F 80% 30.20 in 10.0 mi WSW 3.5 mph - N/A   Overcast
8:35 PM 30.2 °F 24.3 °F 24.8 °F 80% 30.21 in 10.0 mi West 5.8 mph - N/A   Overcast
8:55 PM 30.2 °F 25.4 °F 23.0 °F 75% 30.21 in 10.0 mi NW 4.6 mph - N/A   Overcast
9:15 PM 30.2 °F 24.3 °F 23.0 °F 75% 30.21 in 7.0 mi WSW 5.8 mph - N/A   Overcast
9:35 PM 30.2 °F 25.4 °F 24.8 °F 80% 30.23 in 10.0 mi WSW 4.6 mph - N/A   Overcast
9:55 PM 28.4 °F 22.2 °F 23.0 °F 80% 30.23 in 10.0 mi SSW 5.8 mph - N/A   Overcast
10:15 PM 26.6 °F 22.6 °F 23.0 °F 86% 30.23 in 10.0 mi SSW 3.5 mph - N/A   Overcast
10:35 PM 26.6 °F 20.0 °F 23.0 °F 86% 30.23 in 10.0 mi SSW 5.8 mph - N/A   Overcast
10:55 PM 28.4 °F 21.2 °F 23.0 °F 80% 30.24 in 10.0 mi South 6.9 mph - N/A   Overcast
11:15 PM 30.2 °F 23.4 °F 23.0 °F 75% 30.25 in 10.0 mi SSW 6.9 mph - N/A   Overcast
11:35 PM 30.2 °F 25.4 °F 23.0 °F 75% 30.25 in 7.0 mi SSW 4.6 mph - N/A   Overcast
11:55 PM 30.2 °F - 21.2 °F 69% 30.25 in 5.0 mi Calm Calm - N/A   Overcast